[[{"header":{"parameterUnit":"m.s-1","parameterCategory":1,"la1":30.2991,"la2":30.254,"lo1":-89.0895,"lo2":-89.0444,"dy":0.0017,"dx":0.0017,"nx":28,"ny":28,"refTime":"2025-02-13T03:00:00:Z","depth":0,"parameterNumber":2,"parameterNumberName":"U-component_of_WINDS"},"data":[0,0,0,0,0,0,0,0,0,0,0,0,0,0,0,0,0,0,0,0,0,0,0,0,0,0,0,0,0,0,0,0,0,0,0,0,0,0,0,0,0,0,0,0,0,0,0,0,0,0,0,0,0,0,0,0,0,0,0.7075,0.7075,0,0.7074,0.7074,0.7074,0.7076,0.7076,0.7077,0.7077,0.7074,0.7073,0.7073,0,0,0,0,0,0,0,0,0,0,0,0,0,0.7078,0.7078,0.7075,0.7075,0.7075,0.7074,0.7074,0.7074,0.7076,0.7076,0.7077,0.7077,0.7074,0.7073,0.7073,0,0,0,0,0,0,0,0,0,0,0,0,0,0.7077,0.7078,0.7075,0.7076,0.7076,0.7074,0.7074,0.7074,0.7076,0.7076,0.7077,0.7077,0.7074,0.7073,0.7073,0.707,0,0,0.7073,0.7072,0,0,0,0,0,0,0,0,0.7077,0.7077,0.7076,0.7076,0.7076,0.7076,0.7074,0.7073,0.7076,0.7076,0.7077,0.7077,0.7074,0.7074,0.7073,0.707,0.7069,0.7073,0.7072,0.7072,0.7072,0,0,0,0,0,0,0,0.7077,0.7077,0.7075,0.7076,0.7076,0.7077,0.7077,0.7074,0.7075,0.7076,0.7076,0.7076,0.7074,0.7074,0.7073,0.7069,0.7073,0.7072,0.7072,0.7072,0.7064,0.7064,0,0,0,0,0,0,0.7077,0.7077,0.7075,0.7075,0.7077,0.7076,0.7076,0.7076,0.7075,0.7075,0.7076,0.7077,0.7074,0.7074,0.7073,0.707,0.7072,0.7072,0.7072,0.7064,0.7064,0.7064,0,0,0,0,0,0,0.7077,0.7077,0.7075,0.7076,0.7076,0.7076,0.7076,0.7076,0.7075,0.7075,0.7075,0.7076,0.7074,0.7073,0.7071,0.707,0.7072,0.7072,0.7064,0.7064,0.7064,0.7062,0,0,0,0,0,0,0.7078,0.7077,0.7076,0.7076,0.7076,0.7073,0.7075,0.7076,0.7075,0.7075,0.7074,0.7074,0.7074,0.7071,0.7071,0.7069,0.7072,0.7064,0.7064,0.7064,0.7063,0.7062,0.7062,0,0,0,0,0,0.7078,0.7075,0.7076,0.7076,0.7074,0.7073,0.7073,0.7073,0.7075,0.7074,0.7074,0.7074,0.707,0.7071,0.707,0.7069,0.7065,0.7064,0.7064,0.7063,0.7062,0.7062,0,0,0,0,0,0,0.7073,0.7075,0.7076,0.7073,0.7073,0.7073,0.7072,0.7073,0.7072,0.7072,0.7072,0.7072,0.707,0.7069,0.707,0.7066,0.7067,0.7067,0.7067,0.7066,0.7066,0.7066,0.7071,0,0,0,0,0,0.7072,0.7071,0.7073,0.707,0.707,0.7071,0.707,0.7071,0.7071,0.7071,0.707,0.7069,0.7068,0.7067,0.7066,0.7063,0.7063,0.7062,0.7061,0.7061,0.7061,0.706,0.706,0.7063,0.7063,0.7063,0,0,0.7069,0.707,0.7069,0.7069,0.7069,0.7068,0.7071,0.7069,0.7069,0.707,0.7068,0.7068,0.7067,0.7065,0.7064,0.7064,0.706,0.7061,0.7061,0.706,0.706,0.7059,0.7059,0.7063,0.7063,0.7063,0,0,0.7064,0.7065,0.7063,0.7063,0.7064,0.7065,0.7065,0.7065,0.7065,0.7064,0.7065,0.7064,0.7062,0.7062,0.7061,0.7058,0.7058,0.7057,0.7056,0.7055,0.7055,0.7054,0.7054,0.7053,0.7057,0.7057,0.7057,0,0.706,0.706,0.7062,0.7061,0.7061,0.7063,0.7062,0.7062,0.7062,0.7062,0.7063,0.7061,0.706,0.7058,0.7058,0.7057,0.7057,0.7057,0.7055,0.7054,0.7054,0.7053,0.7053,0.7057,0.7057,0.7057,0.7057,0,0.7055,0.7055,0.7054,0.7055,0.7055,0.7053,0.7055,0.7055,0.7056,0.7057,0.7056,0.7056,0.7055,0.7055,0.7055,0.7053,0.7054,0.7055,0.7056,0.7054,0.7053,0.7053,0.7057,0.7057,0.7057,0.7057,0,0,0.7046,0.705,0.7049,0.705,0.7052,0.7051,0.705,0.7051,0.7051,0.7051,0.705,0.7049,0.7051,0.705,0.7051,0.7051,0.7049,0.7052,0.7052,0.7051,0.7047,0.7046,0.7046,0.705,0.7049,0.7049,0.7047,0,0.7041,0.704,0.7043,0.7042,0.7041,0.7045,0.7044,0.7045,0.7046,0.7046,0.7048,0.7047,0.7049,0.7049,0.7048,0.7049,0.7048,0.7049,0.7049,0.7049,0.7049,0.7046,0.7044,0.7042,0.7047,0.7047,0.7047,0,0.7035,0.7036,0.7035,0.7038,0.7038,0.7038,0.7039,0.7039,0.704,0.7041,0.7042,0.7043,0.7043,0.7045,0.7044,0.7045,0.7046,0.7046,0.7046,0.7046,0.7047,0.7045,0.7041,0.7041,0.7046,0.7046,0.7047,0,0.7029,0.703,0.703,0.703,0.7034,0.7034,0.7035,0.7037,0.7037,0.7038,0.7039,0.7039,0.7039,0.704,0.7042,0.7043,0.7042,0.7043,0.7042,0.7042,0.7041,0.7041,0.7038,0.7042,0.7042,0.7042,0.7042,0,0.7023,0.7022,0.7027,0.7027,0.7026,0.703,0.7029,0.7031,0.7033,0.7033,0.7036,0.7036,0.7038,0.7039,0.704,0.704,0.704,0.7041,0.7041,0.7041,0.704,0.704,0.704,0.7042,0.7042,0.7042,0.7042,0,0.7015,0.7019,0.7019,0.7023,0.7024,0.7023,0.7026,0.7026,0.7029,0.7029,0.7029,0.7032,0.7033,0.7035,0.7036,0.7038,0.7037,0.7038,0.7037,0.7037,0.7036,0.7036,0.7032,0.7032,0.7036,0.7036,0.7036,0,0.7011,0.7011,0.7015,0.7016,0.7018,0.7019,0.702,0.7023,0.7024,0.7027,0.7027,0.7028,0.7029,0.7031,0.7033,0.7034,0.7035,0.7033,0.7035,0.7034,0.7035,0.7035,0.7035,0.7033,0.7033,0.7032,0.7032,0,0.7003,0.7006,0.7007,0.701,0.7011,0.7013,0.7015,0.7016,0.702,0.7021,0.7022,0.7024,0.7026,0.7027,0.7029,0.703,0.7032,0.7032,0.7032,0.7031,0.7031,0.7031,0.7036,0.7032,0.7032,0.7032,0.7032,0.7032,0.6998,0.6998,0.7002,0.7004,0.7006,0.7008,0.7009,0.7012,0.7013,0.7016,0.7018,0.7019,0.7022,0.7025,0.7026,0.7028,0.7028,0.7028,0.7028,0.7028,0.7028,0.7031,0.7028,0.7028,0.7028,0.7028,0.7028,0,0.6991,0.6993,0.6995,0.6999,0.7001,0.7004,0.7007,0.7008,0.7009,0.7012,0.7014,0.7016,0.7018,0.7021,0.7023,0.7024,0.7025,0.7024,0.7024,0.7024,0.7027,0.7027,0.7023,0.7023,0.7023,0.7023,0.7023,0.7023,0.6987,0.6988,0.6991,0.6993,0.6996,0.6998,0.7,0.7002,0.7005,0.7007,0.7009,0.7012,0.7015,0.7017,0.7019,0.702,0.7021,0.702,0.7021,0.7023,0.7024,0.7024,0.7024,0.702,0.702,0.7019,0.7019,0.7019]},{"header":{"parameterUnit":"m.s-1","parameterCategory":1,"la1":30.2991,"la2":30.254,"lo1":-89.0895,"lo2":-89.0444,"dy":0.0017,"dx":0.0017,"nx":28,"ny":28,"refTime":"2025-02-13T03:00:00:Z","depth":0,"parameterNumber":3,"parameterNumberName":"V-component_of_WINDS"},"data":[0,0,0,0,0,0,0,0,0,0,0,0,0,0,0,0,0,0,0,0,0,0,0,0,0,0,0,0,0,0,0,0,0,0,0,0,0,0,0,0,0,0,0,0,0,0,0,0,0,0,0,0,0,0,0,0,0,0,-7.1064,-7.1065,0,-7.1144,-7.1145,-7.1146,-7.1098,-7.1096,-7.1093,-7.1091,-7.1166,-7.117,-7.1174,0,0,0,0,0,0,0,0,0,0,0,0,0,-7.0863,-7.0867,-7.1064,-7.1065,-7.1066,-7.1144,-7.1145,-7.1146,-7.1098,-7.1095,-7.1093,-7.109,-7.1164,-7.1169,-7.1174,0,0,0,0,0,0,0,0,0,0,0,0,0,-7.0947,-7.0868,-7.1064,-7.1052,-7.1051,-7.1144,-7.1145,-7.1147,-7.1099,-7.1095,-7.1092,-7.1089,-7.1163,-7.1169,-7.1175,-7.1282,0,0,-7.1194,-7.1197,0,0,0,0,0,0,0,0,-7.0942,-7.0954,-7.1052,-7.1053,-7.1053,-7.1108,-7.1102,-7.1192,-7.11,-7.1081,-7.1091,-7.1087,-7.1149,-7.1156,-7.1178,-7.1285,-7.1289,-7.1194,-7.1198,-7.1201,-7.1203,0,0,0,0,0,0,0,-7.0937,-7.0951,-7.1095,-7.1054,-7.1054,-7.104,-7.1048,-7.1119,-7.1133,-7.1082,-7.1079,-7.1089,-7.1148,-7.1172,-7.118,-7.129,-7.1194,-7.12,-7.1204,-7.1206,-7.1489,-7.1493,0,0,0,0,0,0,-7.0933,-7.0946,-7.1093,-7.1098,-7.0988,-7.1046,-7.1056,-7.1093,-7.1132,-7.1135,-7.1092,-7.1087,-7.1164,-7.1172,-7.1182,-7.131,-7.1201,-7.1207,-7.121,-7.1486,-7.149,-7.1494,0,0,0,0,0,0,-7.0928,-7.0946,-7.109,-7.1021,-7.1039,-7.1054,-7.1096,-7.1097,-7.1121,-7.114,-7.1141,-7.1115,-7.1161,-7.1173,-7.1258,-7.1312,-7.1209,-7.1215,-7.1481,-7.1487,-7.1492,-7.1568,0,0,0,0,0,0,-7.0923,-7.0945,-7.0987,-7.1023,-7.1043,-7.1167,-7.11,-7.1101,-7.1133,-7.1127,-7.1161,-7.1164,-7.1159,-7.1249,-7.1264,-7.1319,-7.122,-7.1476,-7.1484,-7.149,-7.156,-7.1575,-7.1588,0,0,0,0,0,-7.0916,-7.1003,-7.0989,-7.1007,-7.1096,-7.117,-7.1181,-7.1176,-7.1137,-7.1179,-7.1191,-7.1163,-7.1304,-7.1258,-7.1275,-7.1332,-7.1473,-7.1482,-7.149,-7.1554,-7.1572,-7.1588,0,0,0,0,0,0,-7.097,-7.1007,-7.0993,-7.1095,-7.113,-7.1162,-7.1214,-7.1195,-7.124,-7.1232,-7.1222,-7.123,-7.1319,-7.1334,-7.1282,-7.1438,-7.1382,-7.1394,-7.1425,-7.1443,-7.1456,-7.145,-7.1225,0,0,0,0,0,-7.0995,-7.1054,-7.1082,-7.1169,-7.1188,-7.1198,-7.123,-7.1224,-7.1259,-7.1273,-7.1291,-7.1324,-7.1376,-7.141,-7.1459,-7.1563,-7.1569,-7.161,-7.1624,-7.1635,-7.1646,-7.1702,-7.1721,-7.1523,-7.1522,-7.1522,0,0,-7.1044,-7.1072,-7.1109,-7.1181,-7.1208,-7.1267,-7.1211,-7.1276,-7.132,-7.1282,-7.1364,-7.1379,-7.1415,-7.151,-7.1553,-7.1525,-7.1702,-7.1646,-7.1655,-7.1659,-7.1713,-7.1732,-7.1748,-7.1528,-7.1527,-7.1526,0,0,-7.1166,-7.1193,-7.1269,-7.1298,-7.134,-7.1347,-7.1365,-7.1401,-7.141,-7.1493,-7.1466,-7.1517,-7.1606,-7.1634,-7.1659,-7.1794,-7.1769,-7.181,-7.1882,-7.1937,-7.1952,-7.1966,-7.2014,-7.2032,-7.182,-7.1821,-7.1821,0,-7.1221,-7.1313,-7.131,-7.1379,-7.1411,-7.1383,-7.1459,-7.1486,-7.154,-7.1562,-7.1531,-7.1645,-7.1667,-7.1768,-7.1802,-7.1823,-7.1843,-7.1805,-7.1951,-7.1965,-7.1977,-7.2023,-7.2041,-7.1825,-7.1825,-7.1824,-7.1824,0,-7.1379,-7.1443,-7.1499,-7.1557,-7.1595,-7.1667,-7.1674,-7.1712,-7.1704,-7.1713,-7.1798,-7.1824,-7.1878,-7.1902,-7.1892,-7.2002,-7.1984,-7.1953,-7.1896,-7.2001,-7.2044,-7.2061,-7.1832,-7.183,-7.1829,-7.1828,0,0,-7.1535,-7.1593,-7.1613,-7.164,-7.1685,-7.1733,-7.1804,-7.186,-7.1893,-7.1932,-7.1991,-7.2068,-7.204,-7.2069,-7.2063,-7.2111,-7.2217,-7.2074,-7.2074,-7.2099,-7.234,-7.2363,-7.2384,-7.2201,-7.2205,-7.2207,-7.2337,0,-7.1659,-7.1786,-7.1786,-7.1902,-7.1961,-7.1936,-7.1997,-7.2031,-7.2042,-7.2092,-7.2103,-7.2158,-7.2117,-7.2134,-7.2182,-7.2194,-7.2265,-7.2185,-7.2254,-7.2256,-7.2245,-7.2406,-7.2431,-7.2551,-7.2353,-7.2356,-7.2358,0,-7.1821,-7.187,-7.1992,-7.2031,-7.2056,-7.2111,-7.2163,-7.2212,-7.2249,-7.2254,-7.2288,-7.2275,-7.2345,-7.2287,-7.2383,-7.2329,-7.2357,-7.2368,-7.2372,-7.2378,-7.2313,-7.2415,-7.259,-7.2608,-7.2385,-7.2382,-7.2381,0,-7.1923,-7.2018,-7.2104,-7.2127,-7.2175,-7.2214,-7.2235,-7.227,-7.2304,-7.2349,-7.2371,-7.2422,-7.245,-7.2489,-7.249,-7.2448,-7.2587,-7.2529,-7.2591,-7.2591,-7.2621,-7.2619,-7.2802,-7.264,-7.264,-7.2639,-7.2639,0,-7.2061,-7.2137,-7.2151,-7.2204,-7.2288,-7.2287,-7.2369,-7.2386,-7.2418,-7.2472,-7.2453,-7.2504,-7.2501,-7.2553,-7.2553,-7.2633,-7.2645,-7.265,-7.2649,-7.2651,-7.2651,-7.2669,-7.266,-7.2644,-7.2643,-7.2642,-7.2641,0,-7.2188,-7.2201,-7.2293,-7.2332,-7.2343,-7.2404,-7.2435,-7.2485,-7.2495,-7.2564,-7.258,-7.2596,-7.2655,-7.266,-7.2728,-7.2728,-7.2825,-7.2815,-7.2813,-7.2811,-7.2873,-7.2867,-7.3074,-7.3101,-7.2922,-7.2924,-7.2925,0,-7.2276,-7.2334,-7.238,-7.2417,-7.2442,-7.25,-7.2536,-7.2538,-7.2575,-7.2624,-7.2667,-7.2726,-7.2772,-7.2869,-7.2884,-7.2936,-7.2927,-7.2996,-7.2934,-7.2936,-7.2928,-7.2924,-7.293,-7.3007,-7.3009,-7.3011,-7.3012,0,-7.2429,-7.2433,-7.2487,-7.2545,-7.2589,-7.2633,-7.2674,-7.2704,-7.2711,-7.2754,-7.2816,-7.2853,-7.2924,-7.2982,-7.3034,-7.3053,-7.3034,-7.3032,-7.3049,-7.3052,-7.3049,-7.3051,-7.2845,-7.3027,-7.3025,-7.3024,-7.3024,-7.3023,-7.2539,-7.259,-7.2632,-7.2693,-7.2725,-7.2764,-7.2814,-7.2832,-7.2885,-7.2945,-7.2942,-7.3011,-7.3047,-7.3115,-7.3139,-7.3191,-7.3168,-7.3193,-7.3199,-7.3205,-7.3211,-7.3042,-7.3201,-7.32,-7.32,-7.32,-7.3199,0,-7.2692,-7.2718,-7.2775,-7.2835,-7.2883,-7.2864,-7.2909,-7.295,-7.3012,-7.3049,-7.3097,-7.3169,-7.3225,-7.3247,-7.3302,-7.334,-7.3332,-7.3354,-7.335,-7.3355,-7.3229,-7.3209,-7.3359,-7.3359,-7.3359,-7.3359,-7.3359,-7.3359,-7.2777,-7.2863,-7.2872,-7.2974,-7.2999,-7.3069,-7.3096,-7.3132,-7.3162,-7.3245,-7.3293,-7.3308,-7.3339,-7.3396,-7.3447,-7.3451,-7.3472,-7.3498,-7.3499,-7.338,-7.3364,-7.3349,-7.333,-7.3502,-7.3503,-7.362,-7.3621,-7.3622]}]]